Retour au catalogue

SL-12 DEB

ActifHEO
NORAD 39801·DEBRIS·🇷🇺 Russia

Lancé Sep 25, 2008 depuis Baikonur Cosmodrome

Loading…

Prochains Passages (prochaines 24 heures)

TLE

FraisSource: Space-Track

Époque: Sep 10, 2026, 03:31 UTC

1 39801U 08046N   26253.14689442  .00000654  00000-0  40043-3 0  9994
2 39801  65.0140  97.8180 5497004 230.1169  67.0629  4.71436433205230

Suivez SL-12 DEB en temps réel avec AllMySat

Download on the App Store